TimeEDT,TemperatureF,Dew PointF,Humidity,Sea Level PressureIn,VisibilityMPH,Wind Direction,Wind SpeedMPH,Gust SpeedMPH,PrecipitationIn,Events,Conditions,WindDirDegrees,DateUTC
12:53 AM,37.9,37.0,97,29.62,8.0,ENE,10.4,-,0.02,Rain,Light Rain,60,2013-04-12 04:53:00
1:34 AM,37.4,37.4,100,29.60,2.5,ENE,9.2,-,0.03,Rain,Heavy Rain,60,2013-04-12 05:34:00
1:53 AM,37.9,37.9,100,29.60,2.5,ENE,5.8,-,0.11,Rain,Rain,60,2013-04-12 05:53:00
2:14 AM,37.4,37.4,100,29.58,6.0,ENE,9.2,-,0.02,Rain,Light Rain,70,2013-04-12 06:14:00
2:53 AM,37.9,37.9,100,29.59,6.0,ENE,4.6,-,0.04,Rain,Light Rain,60,2013-04-12 06:53:00
3:53 AM,37.9,37.0,97,29.55,10.0,NNE,6.9,-,0.01,Rain,Light Rain,30,2013-04-12 07:53:00
4:53 AM,37.9,37.0,97,29.58,7.0,NW,8.1,-,0.06,Rain,Light Rain,310,2013-04-12 08:53:00
5:08 AM,37.4,37.4,100,29.57,2.5,NW,6.9,-,0.00,Rain,Light Rain,310,2013-04-12 09:08:00
5:53 AM,37.0,36.0,96,29.54,2.5,North,9.2,-,0.04,Rain,Light Rain,350,2013-04-12 09:53:00
6:00 AM,37.4,35.6,93,29.53,2.5,North,8.1,-,0.01,Rain,Light Rain,10,2013-04-12 10:00:00
6:38 AM,37.4,35.6,93,29.53,2.5,NNW,8.1,-,0.01,Rain,Light Rain,340,2013-04-12 10:38:00
6:53 AM,37.0,37.0,100,29.56,2.5,NNW,5.8,-,0.01,Rain,Light Rain,330,2013-04-12 10:53:00
6:57 AM,37.4,37.4,100,29.54,6.0,NW,4.6,-,0.00,Rain,Light Rain,320,2013-04-12 10:57:00
7:53 AM,37.0,37.0,100,29.58,9.0,WNW,4.6,-,0.00,,Overcast,300,2013-04-12 11:53:00
8:53 AM,37.9,35.1,89,29.60,3.0,West,4.6,-,0.00,Rain,Light Rain,260,2013-04-12 12:53:00
9:53 AM,39.0,36.0,89,29.61,6.0,SW,9.2,-,0.00,Rain,Light Rain,220,2013-04-12 13:53:00
10:10 AM,39.2,35.6,87,29.59,2.5,SW,10.4,-,0.00,Rain,Light Rain,220,2013-04-12 14:10:00
10:53 AM,41.0,37.0,86,29.62,2.5,SW,10.4,-,0.00,Rain,Light Rain,220,2013-04-12 14:53:00
11:08 AM,42.8,37.4,81,29.60,10.0,SW,11.5,-,0.00,Rain,Light Rain,220,2013-04-12 15:08:00
11:53 AM,42.1,37.9,85,29.63,4.0,SW,13.8,-,0.00,Rain,Light Rain,220,2013-04-12 15:53:00
12:33 PM,42.8,37.4,81,29.63,7.0,SW,19.6,27.6,0.00,,Overcast,220,2013-04-12 16:33:00
12:40 PM,42.8,37.4,81,29.63,7.0,SW,17.3,26.5,0.00,,Overcast,220,2013-04-12 16:40:00
12:53 PM,43.0,37.0,80,29.65,7.0,SW,18.4,-,0.00,,Overcast,220,2013-04-12 16:53:00
1:22 PM,41.0,35.6,81,29.65,5.0,SW,19.6,29.9,0.00,Rain,Light Rain,230,2013-04-12 17:22:00
1:39 PM,42.8,35.6,76,29.65,10.0,SSW,18.4,-,0.00,,Overcast,210,2013-04-12 17:39:00
1:53 PM,42.1,34.0,73,29.68,10.0,SW,24.2,29.9,0.00,,Overcast,220,2013-04-12 17:53:00
2:19 PM,42.8,33.8,70,29.66,10.0,SSW,15.0,-,N/A,,Mostly Cloudy,210,2013-04-12 18:19:00
2:53 PM,42.1,30.9,65,29.69,10.0,SW,19.6,-,N/A,,Overcast,220,2013-04-12 18:53:00
3:39 PM,41.0,30.2,65,29.69,10.0,SW,16.1,25.3,N/A,,Overcast,220,2013-04-12 19:39:00
3:53 PM,41.0,30.9,67,29.71,10.0,SW,24.2,29.9,N/A,,Overcast,220,2013-04-12 19:53:00
4:53 PM,41.0,30.9,67,29.72,10.0,SW,15.0,27.6,N/A,,Overcast,220,2013-04-12 20:53:00
5:53 PM,42.1,33.1,70,29.75,10.0,SW,15.0,-,N/A,,Overcast,220,2013-04-12 21:53:00
6:53 PM,42.1,33.1,70,29.76,10.0,SSW,15.0,-,N/A,,Overcast,210,2013-04-12 22:53:00
7:45 PM,42.8,33.8,70,29.76,10.0,SSW,17.3,-,N/A,,Overcast,200,2013-04-12 23:45:00
7:53 PM,42.1,34.0,73,29.77,10.0,SSW,17.3,24.2,N/A,,Overcast,210,2013-04-12 23:53:00
8:53 PM,41.0,34.0,76,29.78,10.0,SSW,13.8,-,N/A,,Overcast,200,2013-04-13 00:53:00
9:53 PM,41.0,34.0,76,29.79,10.0,SSW,13.8,-,N/A,,Overcast,200,2013-04-13 01:53:00
10:53 PM,42.1,35.1,76,29.79,10.0,SSW,15.0,-,N/A,,Overcast,200,2013-04-13 02:53:00
11:41 PM,42.8,35.6,76,29.78,10.0,SSW,17.3,-,N/A,,Overcast,200,2013-04-13 03:41:00
11:53 PM,42.1,36.0,79,29.80,10.0,SSW,19.6,25.3,0.00,Rain,Light Rain,210,2013-04-13 03:53:00